Tracking 29059 objects as of 18-Jun-2024
HD Live streaming from Space Station
objects crossing your sky now

STARLINK-1574


10-day predictions
STARLINK-1574 is classified as:


NORAD ID: 46062
Int'l Code: 2020-055AM
Perigee: 553.3 km
Apogee: 555.4 km
Inclination: 53.1 °
Period: 95.6 minutes
Semi major axis: 6925 km
RCS: Unknown
Launch date: August 7, 2020
Source: United States (US)
Launch site: AIR FORCE EASTERN TEST RANGE (AFETR)
Your satellite tracking list
Your tracking list is empty




NASA's NSSDC Master Catalog

Two Line Element Set (TLE):
1 46062U 20055AM  24169.97973838  .00018193  00000-0  12368-2 0  9990
2 46062  53.0553  63.4934 0001488  78.5767 281.5389 15.06408950213584
Source of the keplerian elements: AFSPC